Overview Statistics Trail Chart Weather Telemetry Raw packets
 

This is the latest recevied weather packets stored in our database for station/object S57PNX-8. If no packets are shown the sender has not sent any weather packets the latest 10 day(s).

<< 20 21 22 23 24 25 26 >>
Time Temp. Humidity Pressure Rain* Wind** Luminosity Snow
1788255412 21.67° C 53% 1026.6 hPa - - - -
1788255370 21.67° C 53% 1026.6 hPa - - - -
1788254471 21.67° C 54% 1026.6 hPa - - - -
1788253572 21.11° C 55% 1026.6 hPa - - - -
1788252673 20.56° C 56% 1026.5 hPa - - - -
1788251774 20° C 57% 1026.4 hPa - - - -
1788250875 19.44° C 57% 1026.3 hPa - - - -
1788249976 19.44° C 58% 1026.3 hPa - - - -
1788249077 18.89° C 58% 1026.1 hPa - - - -
1788248178 18.33° C 60% 1025.9 hPa - - - -
1788247279 18.33° C 61% 1025.7 hPa - - - -
1788246379 17.78° C 61% 1025.5 hPa - - - -
1788245481 17.78° C 62% 1025.6 hPa - - - -
1788244581 17.78° C 62% 1025.7 hPa - - - -
1788243682 17.78° C 62% 1025.7 hPa - - - -
1788242783 18.33° C 63% 1025.3 hPa - - - -
1788242334 17.78° C 63% 1025.2 hPa - - - -
1788241435 17.78° C 63% 1025.3 hPa - - - -
1788240536 17.78° C 63% 1025.3 hPa - - - -
1788239636 17.78° C 63% 1025.2 hPa - - - -
1788238737 18.33° C 64% 1024.9 hPa - - - -
1788237838 18.33° C 64% 1024.9 hPa - - - -
1788236939 18.33° C 65% 1024.7 hPa - - - -
1788236040 18.33° C 67% 1024.5 hPa - - - -
1788235141 18.33° C 69% 1024.4 hPa - - - -

* Rain since midnight (hover to see other rain measurements)
** Current wind speed in m/s (hover to see current wind gust speed)